User: anonymous   Login
Location: PFO Observatory
(45.2937°N, 66.0991°W)
Time: 16:38:05
(UTC-03:00)
Language:

Cosmos 1151 Rocket - Orbit

View from above orbital plane
View from above orbital plane
View from above satellite
View from above satellite

Ground track
Ground track

The orbit data is extracted from the following two-line orbital elements,

1 11672U 80005B   18146.96539702 +.00000072 +00000-0 +51521-5 0  9999
2 11672 082.5143 114.8889 0015194 254.6065 105.3474 14.87921099053405
Epoch (UTC): 26 May 2018 23:10:10
Eccentricity: 0.0015194
inclination: 82.5143°
perigee height: 594 km
apogee height: 615 km
right ascension of ascending node: 114.8889°
argument of perigee: 254.6065°
revolutions per day: 14.87921099
mean anomaly at epoch: 105.3474°
orbit number at epoch: 5340

The dashed part of the orbit path shows where the satellite is in the earth's shadow,  

DLR